Regional Weather Roundup
Issued by NWS San Diego, CA

Home | Current Version | Previous Version | Text Only | Print | Product List | Glossary On
Versions: 1 2 3 4 5 6 7 8 9 10 11 12 13 14 15 16 17 18 19 20 21 22 23 24 25 26 27 28 29 30 31 32 33 34 35 36 37 38 39 40 41 42 43 44 45 46 47 48 49 50
000
ASUS46 KSGX 101911
RWRSGX

SAN DIEGO HOURLY WEATHER ROUNDUP
NATIONAL WEATHER SERVICE SAN DIEGO CA
1100 AM PST SAT DEC 10 2016

NOTE: "FAIR" INDICATES FEW OR NO CLOUDS BELOW 12,000 FEET WITH NO
SIGNIFICANT WEATHER AND/OR OBSTRUCTIONS TO VISIBILITY.

CAZ042-043-060-061-PZZ750-775-102000-

GREATER SAN DIEGO AREA

CITY           SKY/WX    TMP DP  RH WIND       PRES   REMARKS
SAN DIEGO AP   PTSUNNY   62  54  74 CALM      30.20F
NATIONAL CITY    N/A     63  57  81 CALM      30.20F
CHULA VISTA      N/A     62  57  82 CALM      30.11F
IMPERIAL BEACH CLOUDY    66  54  65 NE6       30.19F
BROWN FIELD    PTSUNNY   61  55  81 VRB3      30.18F
MIRAMAR MCAS   CLOUDY    65  56  72 N5        30.18F
MONTGOMERY FLD CLOUDY    61  53  75 VRB5      30.18F

$$

NORTH SAN DIEGO COUNTY

CITY           SKY/WX    TMP DP  RH WIND       PRES   REMARKS
CAMP PENDLETON CLOUDY    60  55  83 CALM      30.18F HAZE
OCEANSIDE AP   CLOUDY    63  54  72 NE5       30.17F
OCEANSIDE HBR    N/A     61  56  83 CALM      30.20F
VISTA            N/A     58  53  83 CALM      30.16F
CARLSBAD       CLOUDY    61  55  81 E5        30.16F
DEL MAR          N/A     61  58  88 CALM      30.20F
LA JOLLA SCRIP   N/A     62  57  83 NE3       30.17F
FALLBROOK        N/A     57  57 100 CALM      30.18F
ESCONDIDO        N/A     61  56  83 SW2       30.19F
SAN MARCOS       N/A     59  54  82 CALM      30.20F

$$

EAST SAN DIEGO COUNTY

CITY           SKY/WX    TMP DP  RH WIND       PRES   REMARKS
RAMONA         SUNNY     59  52  77 W5        30.18F
SANTEE LAKES     N/A     58  55  88 CALM      30.19F
LA MESA          N/A     57  54  90 CALM      30.14F
JAMUL            N/A     58  54  87 CALM      30.19F
DESCANSO N       N/A     60  45  57 W3        30.14F
CAMPO            N/A     64  45  49 SW14      30.13F

$$

ORANGE COUNTY AND THE LOS ANGELES BASIN

CITY           SKY/WX    TMP DP  RH WIND       PRES   REMARKS
JOHN WAYNE AP  CLOUDY    63  56  78 S7        30.18F
LAGUNA BEACH     N/A     62  59  91 S3        30.13F
LAKE FOREST FR   N/A     60  52  75 CALM      30.07F
HUNTINGTON BCH   N/A     63  57  80 W2        30.20S
LOS ALAMITOS   CLOUDY    62  55  77 W3        30.18S HAZE
FULLERTON      CLOUDY    63  56  78 CALM      30.17F HAZE
LONG BEACH     CLOUDY    62  52  69 CALM      30.18S HAZE
L.A. AP        PTSUNNY   61  54  77 VRB3      30.18F HAZE
L.A. DOWNTOWN  PTSUNNY   60  53  77 CALM      30.17F HAZE

$$

THE INLAND EMPIRE

CITY           SKY/WX    TMP DP  RH WIND       PRES   REMARKS
CORONA         PTSUNNY   58  53  84 VRB3      30.19F
CHINO          PTSUNNY   60  52  74 CALM      30.19F HAZE
ONTARIO        PTSUNNY   57  51  80 CALM      30.18F
SAN BERNARDINO MOSUNNY   61  48  63 CALM      30.17F HAZE
RIVERSIDE AP   MOSUNNY   60  52  74 CALM      30.17F HAZE
MORENO VALLEY    N/A     61  53  75 SE5       28.27F
MARCH ARB      SUNNY     59  51  74 SE6       30.16F
HORSETHIEF CYN   N/A     60  46  58 S3        30.21F
PERRIS           N/A     60  51  74 S2        30.20F
HEMET EAST       N/A     60  45  56 CALM      30.21F
FRENCH VALLEY  NOT AVBL
TEMECULA         N/A     58  55  91 CALM      30.22F

$$

SAN BERNARDINO AND RIVERSIDE COUNTY MOUNTAINS

CITY           SKY/WX    TMP DP  RH WIND       PRES   REMARKS
BIG BEAR AP    SUNNY     50  36  57 SW12G23   30.27F
ANGELUS OAKS     N/A     56  41  58 CALM      30.11F
PINE COVE        N/A     54  41  60 NW5       30.15F

$$

SOUTHERN DESERT INCLUDING THE COACHELLA VALLEY

CITY           SKY/WX    TMP DP  RH WIND       PRES   REMARKS
PALM SPRINGS   NOT AVBL
PALM DESERT      N/A     71  47  42 CALM        N/A
THERMAL        SUNNY     68  43  40 CALM      30.10F
BLYTHE         SUNNY     62  20  19 CALM      30.13F
IMPERIAL AP    SUNNY     66  40  38 CALM      30.11F
EL CENTRO NAS  MOSUNNY   69  36  29 VRB3      30.12F
YUMA AZ        SUNNY     69  30  23 NW7       30.11
MEXICALI       MOSUNNY   68  21  17 N3        30.12

$$

UPPER DESERT

CITY           SKY/WX    TMP DP  RH WIND       PRES   REMARKS
VICTORVILLE AP MOSUNNY   66  46  48 W22G28    30.15F
HESPERIA         N/A     67  48  49 N3        30.25F
PALMDALE       MOSUNNY   70  51  51 NW15      30.15F
LANCASTER      PTSUNNY   70  51  51 W25G33    30.15F
EDWARDS AFB    CLOUDY    67  49  53 SW13      30.12F
DAGGETT        SUNNY     72  47  40 W32G40    30.06F
NEEDLES        MOSUNNY   59  23  25 N5        30.14F

$$

REGIONAL REPORTS

CITY           SKY/WX    TMP DP  RH WIND       PRES   REMARKS
SANTA BARBARA  MOSUNNY   62  59  90 SE9       30.15F
SANDBERG       CLOUDY    65  49  56 NW15      30.23S
LAS VEGAS NV   MOSUNNY   54  19  25 CALM      30.12F
PHOENIX AZ     MOSUNNY   66  37  34 E5        30.11F
TIJUANA        CLOUDY    59  52  77 N8        30.22F
ENSENADA NW      N/A     63  32  31 SW3       30.15F

$$

OFFSHORE ISLANDS

CITY           SKY/WX    TMP DP  RH WIND       PRES   REMARKS
CATALINA ARPT  FOG       56  56 100 NW10      30.20R VSB<1/4
SAN NICOLAS IS FOG       59  32  36 NW24G33   30.18F VSB 1

$$

MARINE AND OFFSHORE BUOY REPORTS

STATION/POSITION SKY/WX   TEMP    WIND        PRES    SWELL
                          AIR SEA DIR/SP/G            HT/PER/DIR
                          (F)     (DEG/KT/KT) (MB)    (FT/S/D)
TANNER BANKS               62 62  310/ 16/ 19 1022.9F   3/330/15
S CLEMENTE BASIN           60 62  310/ 10/ 12 1021.9F   5/250/15
SAN NICOLAS IS.               58                N/A     2/290/13
SO. S. ROSA ISLA           59 59  290/ 14/ 17 1022.7F   5/300/ 9
W. S. BARBARA CH           58 57  300/  8/ 10 1023.0F   5/280/15
M. S. BARBARA CH                  270/ 14/ 17 1021.6F
S. MONICA BASIN            60 61  100/  6/  8 1021.6F   3/260/ 9
S PEDRO CHANNEL               61                N/A     2/270/14
CMP PENDLETON NS              61                N/A     2/230/14
OCEANSIDE OFFSHR              62                N/A     2/210/14
TORREY PINES OTR              61                N/A     2/270/11
POINT LOMA SOUTH              62                N/A     2/270/15

$$




USA.gov is the U.S. government's official web portal to all federal, state and local government web resources and services.